Weather in Khilovo

Russia / Pskov Oblast     57°46′09″N   29°22′32″E
В апреле 2022 года жителям России запретили посещать сайт meteo.paraplan.net по решению Генеральной прокуратуры. Аудитория сайта уменьшилась в 10 раз. Владельцы сайта не видят смысла в поддержке погодного сервера в таких условиях. Сайт будет закрыт в октябре.
temp.,
°C
wind,
m/s
gust,
m/s
humid.,
%
clouds,
%
prec.,
mm/h
press.,
hPa
HPBL,
m
25 september, sun
sun2500:00+7nw4127698 0.0 1010616
03:00+8nw51272100 0.0 1009776
06:00+8nw51273100 0.0 1008797
09:00+8nw41173100 0.0 1008787
12:00+10nnw4768100 0.1 10081041
15:00+9n3784100 0.4 1008803
18:00+7nnw2796100 2.2 1008497
21:00+7nw2697100 4.2 1008430
26 september, mon
mon2600:00+6w1398100 1.6 1008196
03:00+6w1398100 2.9 1008162
06:00+7w1298100 1.1 1008100
09:00+7wsw1195100 1.1 100991
12:00+8nnw0188100 0.0 1009323
15:00+11ne117323 0.1 1010693
18:00+10ene237980 0.0 1009110
21:00+6se22955 0.0 101024
27 september, tue
tue2700:00+5se22955 0.0 101021
03:00+5e229554 0.0 101022
06:00+4ese2396100 0.0 101053
09:00+7ese2485100 0.0 1010168
12:00+10ese3476100 0.0 1010432
15:00+10ese3582100 0.3 1010575
18:00+9e3691100 0.2 1010380
21:00+7ene3109784 0.2 1010350
28 september, wed
wed2800:00+7e31097100 0.0 1009292
03:00+8e41091100 0.0 1008453
06:00+8e51388100 0.0 1008536
09:00+8e61580100 0.0 1006687
12:00+11e71474100 0.1 1005984
15:00+9e61589100 2.0 10041059
18:00+9e71692100 2.8 10031114
21:00+8ese61494100 6.1 10041030
29 september, thu
thu2900:00+8ese61394100 1.9 1005852
03:00+7ese51195100 2.8 1005699
06:00+7ese41096100 0.6 1006563
09:00+8se389797 2.1 1007387
12:00+11s368581 0.1 1008624
15:00+15sse36555 0.2 10091643
18:00+12se257284 0.0 101090
21:00+11se41178100 0.1 1012364